FW9176 Weather Reports


Display with metric or nautical units.
time (UTC)temp
F
wind
direction
speed
MPH
gust
MPH
rain 1hr
in
rain 24hr
in
rain mn
in
humidity
%
barometer
mb
20260509021552 57 0 0.0 0.0 0.00 0.00 0.00 67 1004.2
20260509020057 58 0 0.0 1.0 0.00 0.00 0.00 66 1004.0
20260509014553 58 0 0.0 0.0 0.00 0.00 0.00 66 1003.9
20260509013055 59 0 0.0 1.0 0.00 0.00 0.00 65 1003.8
20260509011553 60 0 0.0 1.0 0.00 0.00 0.00 64 1003.7
20260509010051 60 0 0.0 0.0 0.00 0.00 0.00 63 1003.7
20260509004559 61 0 0.0 1.0 0.00 0.00 0.00 62 1003.8
20260509003051 62 0 0.0 1.0 0.00 0.00 0.00 61 1003.8
20260509001553 62 94 0.0 1.0 0.00 0.00 0.00 61 1003.8
20260509000055 63 80 0.0 1.0 0.00 0.00 0.00 60 1003.8
20260508234555 63 0 0.0 2.0 0.00 0.00 0.00 60 1004.0
20260508233112 64 60 0.0 2.0 0.00 0.00 0.00 59 1003.9
20260508231556 64 0 0.0 1.0 0.00 0.00 0.00 60 1004.0
20260508230058 64 75 0.0 2.0 0.00 0.00 0.00 61 1004.0
20260508224615 64 80 1.0 2.0 0.00 0.03 0.00 61 1004.1
20260508223052 64 0 0.0 2.0 0.00 0.03 0.00 62 1004.2
20260508221551 63 0 0.0 3.0 0.00 0.03 0.00 62 1004.1
20260508220050 64 0 0.0 2.0 0.00 0.03 0.00 61 1004.2
20260508214551 64 0 0.0 2.0 0.00 0.04 0.00 60 1004.3
20260508213052 63 0 1.0 3.0 0.00 0.04 0.00 60 1004.3
20260508211552 64 0 1.0 3.0 0.00 0.04 0.00 60 1004.3
20260508210057 65 77 0.0 4.0 0.00 0.04 0.00 58 1004.4
20260508204555 66 0 0.0 1.0 0.00 0.04 0.00 51 1004.5
20260508203056 66 0 0.0 3.0 0.00 0.04 0.00 46 1004.6
20260508201555 65 0 0.0 3.0 0.00 0.04 0.00 56 1004.9
20260508200104 65 68 1.0 3.0 0.00 0.04 0.00 56 1005.2
20260508194558 67 30 0.0 4.0 0.00 0.04 0.00 44 1005.4
20260508193104 66 207 1.0 5.0 0.00 0.04 0.00 47 1005.6
20260508191556 65 114 0.0 2.0 0.00 0.04 0.00 50 1005.8
20260508190052 65 208 0.0 4.0 0.00 0.04 0.00 48 1006.1
20260508184556 65 81 0.0 1.0 0.00 0.04 0.00 52 1006.1
20260508183051 65 0 0.0 2.0 0.00 0.04 0.00 52 1006.5
20260508181556 65 0 0.0 4.0 0.00 0.04 0.00 51 1006.7
20260508180057 65 123 1.0 7.0 0.00 0.04 0.00 53 1006.7
20260508174611 65 131 0.0 3.0 0.00 0.04 0.00 56 1006.9
20260508173056 66 94 1.0 4.0 0.00 0.04 0.00 57 1007.2
20260508171552 65 128 0.0 2.0 0.00 0.04 0.00 60 1007.5
20260508170056 63 80 0.0 3.0 0.00 0.04 0.00 61 1007.8
20260508164555 62 0 0.0 2.0 0.00 0.04 0.00 63 1008.0
20260508163058 62 150 0.0 3.0 0.00 0.04 0.00 62 1008.2
20260508161553 62 79 0.0 3.0 0.00 0.04 0.00 60 1008.4
20260508160054 61 0 0.0 3.0 0.00 0.04 0.00 59 1008.5
20260508154554 61 0 0.0 2.0 0.00 0.04 0.00 61 1008.6
20260508153053 60 82 0.0 2.0 0.00 0.04 0.00 62 1008.7
20260508151556 59 0 0.0 2.0 0.00 0.04 0.00 60 1008.8
20260508150051 58 0 0.0 2.0 0.00 0.04 0.00 60 1008.9
20260508144552 57 96 0.0 1.0 0.00 0.04 0.00 64 1009.0
20260508143056 55 0 0.0 2.0 0.00 0.04 0.00 69 1009.0
20260508141551 54 0 0.0 1.0 0.00 0.04 0.00 68 1009.0
20260508140058 53 0 0.0 4.0 0.00 0.04 0.00 73 1009.2
20260508134554 52 0 0.0 4.0 0.00 0.04 0.00 76 1009.1
20260508133057 50 0 0.0 0.0 0.00 0.04 0.00 79 1009.0
20260508131556 49 0 0.0 0.0 0.00 0.04 0.00 81 1009.0
20260508130106 48 0 0.0 1.0 0.00 0.04 0.00 83 1009.0
20260508124555 46 0 0.0 0.0 0.00 0.04 0.00 85 1009.1
20260508123100 45 0 0.0 0.0 0.00 0.04 0.00 87 1009.4
20260508121624 44 0 0.0 0.0 0.00 0.04 0.00 87 1009.0
20260508120056 44 0 0.0 0.0 0.00 0.04 0.00 88 1009.3
20260508114553 43 0 0.0 0.0 0.00 0.04 0.00 89 1009.2
20260508113051 43 0 0.0 0.0 0.00 0.04 0.00 89 1009.0
20260508111552 42 0 0.0 0.0 0.00 0.04 0.00 89 1008.8
20260508110055 42 0 0.0 0.0 0.00 0.04 0.00 89 1008.9
20260508104600 41 0 0.0 0.0 0.00 0.04 0.00 88 1008.9
20260508103052 41 0 0.0 0.0 0.00 0.04 0.00 88 1009.0
20260508101549 40 0 0.0 0.0 0.00 0.04 0.00 88 1008.8
20260508100052 40 0 0.0 0.0 0.00 0.04 0.00 87 1009.0
20260508094551 40 0 0.0 0.0 0.00 0.04 0.00 87 1009.1
20260508093055 40 0 0.0 0.0 0.00 0.04 0.00 86 1009.1
20260508091601 41 0 0.0 0.0 0.00 0.04 0.00 86 1009.1
20260508090108 41 0 0.0 0.0 0.00 0.04 0.00 86 1009.1
20260508084554 42 0 0.0 0.0 0.00 0.04 0.00 86 1009.2
20260508083052 42 0 0.0 0.0 0.00 0.04 0.00 85 1009.3
20260508081607 42 0 0.0 0.0 0.00 0.04 0.00 85 1009.4
20260508080055 43 0 0.0 0.0 0.00 0.04 0.00 85 1009.5
20260508074552 43 0 0.0 0.0 0.00 0.04 0.00 84 1009.6
20260508073100 44 0 0.0 0.0 0.00 0.04 0.00 83 1009.7
20260508071618 45 0 0.0 0.0 0.00 0.04 0.00 82 1009.7
20260508070101 45 0 0.0 0.0 0.00 0.04 0.00 81 1009.7
20260508064549 46 0 0.0 0.0 0.00 0.04 0.00 80 1009.6
20260508063051 47 0 0.0 0.0 0.00 0.04 0.00 79 1009.5
20260508061552 47 0 0.0 1.0 0.00 0.04 0.00 78 1009.5
20260508060053 48 0 0.0 0.0 0.00 0.04 0.00 78 1009.5
20260508054554 48 0 0.0 0.0 0.00 0.04 0.00 77 1009.4
20260508053054 49 0 0.0 0.0 0.00 0.04 0.00 76 1009.4
20260508051552 49 0 0.0 0.0 0.00 0.04 0.00 76 1009.3
20260508050054 50 0 0.0 0.0 0.00 0.04 0.00 74 1009.3
20260508044600 50 0 0.0 1.0 0.00 0.04 0.04 73 1009.3
20260508043056 50 0 0.0 1.0 0.00 0.04 0.04 74 1009.2
20260508041552 49 0 0.0 0.0 0.00 0.04 0.04 74 1009.0
20260508040055 49 0 0.0 2.0 0.00 0.04 0.04 76 1009.0
20260508034552 48 0 0.0 0.0 0.00 0.04 0.04 78 1009.0
20260508033115 48 0 0.0 0.0 0.00 0.04 0.04 78 1008.9
20260508031554 49 0 0.0 0.0 0.00 0.04 0.04 78 1008.8
20260508030111 49 0 0.0 0.0 0.00 0.04 0.04 78 1008.8
20260508024620 49 0 0.0 0.0 0.00 0.04 0.04 77 1008.7
20260508023054 50 0 0.0 0.0 0.00 0.04 0.04 77 1008.5